Погода в Буденновске

Хотите узнать прогноз погоды в Буденновске? Тогда Вам сюда: Погода в Буденновске

Поиск расширенной информации на нашем сайте:

Полезная информация:

Новости сайта



02.01.2020
Опубликован Долгосрочный прогноз погоды по городам России и ближнего зарубежья на январь 2020 года.
Карты: Прогноз на январь и февраль 2020 года, Сравнение прогнозируемой аномалии приземной температуры воздуха на январь 2020 года по разным моделям.




Погода в Буденновске - сегодня

Время (UTC), дата Ветер
(°,м/с) 
Видим.   Явления Облачность Т
(°С)
Тd
(°С)
f(%) Тe
(°С)
Pmin
(гПа)
dP
(гПа)
Po
(мм)
O2
(г/м3)
Тmin Tmax R s Состояние
почвы
09 16.01.21 220 (ЮЗ) 10 км    3/1 600 м средняя 
[Sc|Ac trans]
+4 +0.7 79 +4  1017.1  -0.5  750  298           
12 16.01.21 290 (З) 10 км    9/3 600 м средняя, верхняя 
[Sc|Ac trans|Ci fib]
+4.9 -1.8 62 +5  1016.9  -0.2  750  297           
15 16.01.21 020 (С) 10 км    10/10 600 м 
[Sc]
+2.4 -1.9 73 +2  1017.5  0.5  751  300    +4.9       
18 16.01.21 050 (СВ) 10 км    10/10 600 м 
[Sc]
+0.8 -1.5 85 1017.4  -0.3  750  302           
21 16.01.21 070 (В) 10 км    10/10 600 м 
[Sc]
+0 -2.4 84 -2  1015.9  -1.5  749  302           
00 17.01.21 070 (В) 4000 м  дымка  10/10 600 м 
[Sc]
-0.8 -1.5 95 -3  1014.2  -1.8  748  302           
03 17.01.21 080 (В) 4000 м  дымка  10/10 600 м 
[Sc]
-0.9 -1.9 93 -3  1012.1  -2.1  746  302  -1         
06 17.01.21 070 (В) 5{10}  4000 м  слаб. снег  10/10 600 м 
[Ns]
-1.1 -2.6 90 -4  1010.8  -1.3  745  302  -1.1         
09 17.01.21 080 (В) 5-10{12}  4000 м  слаб. снег  10/10 600 м 
[Ns]
-1.5 -3.4 87 -5  1008.4  -2.3  744  302           
12 17.01.21 070 (В) 4{11}  4000 м  слаб. ливневой снег  10/10 600 м кучево-дожд. 
[Cb calv]
-2.1 -3.4 91 -5  1007.3  -1.2  743  302           
15 17.01.21 070 (В) 4000 м  слаб. крупа{ливн. осадки}  10/10 600 м кучево-дожд. 
[Cb calv]
-2.3 -3 95 -5  1008.1  0.8  743  302    -0.8  0.5     
18 17.01.21 060 (СВ) 3{10}  4000 м  слаб. ливневой снег  10/10 600 м кучево-дожд. 
[Cb calv]
-2.8 -3.5 95 -5  1007.5  -0.6  743  303           
21 17.01.21 060 (СВ) 3{11}  4000 м  в посл. час ливневой снег  10/10 600 м кучево-дожд. 
[Cb calv]
-3.1 -3.9 94 -5  1007.7  0.2  743  303           
00 18.01.21 030 (СВ) 4000 м  слаб. крупа{ливн. осадки}  10/10 600 м кучево-дожд. 
[Cb calv]
-3 -3.7 95 -4  1008  0.3  743  303           
03 18.01.21 070 (В) 4000 м  дымка{ливн. осадки}  9/9 600 м 
[Sc]
-3.8 -4.8 93 -5  1009.1  744  305  -3.8       
06 18.01.21 290 (З) 4000 м  слаб. ливневой снег  10/10 600 м кучево-дожд. 
[Cb calv]
-3.4 -4.4 93 -3  1012.1  746  305  -3.8         
09 18.01.21 250 (З) 4000 м  дымка{ливн. осадки}  10/10 600 м 
[Sc]
-2.3 -3.9 89 -5  1012.3  0.2  746  304           
12 18.01.21 300 (СЗ) 5{10}  10 км  {ливн. осадки}  9/9 600 м 
[Sc]
-3.8 -7.4 76 -7  1013.9  1.4  748  306           
15 18.01.21 300 (СЗ) 10 км    10/10 600 м 
[Sc]
-5.1 -8.3 78 -8  1015.5  1.5  749  308    -1.8  0.2     
18 18.01.21 310 (СЗ) 10 км    10/10 600 м 
[Sc]
-6 -9 79 -9  1016.9  1.4  750  310           
21 18.01.21 340 (С) 10 км    10/10 600 м 
[Sc]
-5.6 -8.2 82 -7  1017.7  0.8  750  309           
00 19.01.21 300 (СЗ) 4000 м  слаб. ливневой снег  10/10 600 м кучево-дожд. 
[Cb calv]
-6.3 -7.9 88 -9  1020.1  2.3  752  311           
03 19.01.21 280 (З) 4000 м  слаб. ливневой снег  10/10 600 м кучево-дожд. 
[Cb calv]
-6.5 -8 89 -8  1020.8  0.7  753  311  -6.7       
06 19.01.21 170 (Ю) 4000 м  дымка{ливн. осадки}  8/6 600 м средняя 
[Sc|Ac As]
-7.8 -8.9 92 -8  1021.9  753  313  -11.1         
09 19.01.21 220 (ЮЗ) 4000 м  дымка  9/0 средняя, верхняя 
[Ac trans|Ci fib]
-4 -6.5 83 -5  1020.1  -1.5  752  308           
Время (UTC), дата Ветер
(°,м/с) 
Видим.   Явления Облачность Т
(°С)
Тd
(°С)
f(%) Тe
(°С)
Pmin
(гПа)
dP
(гПа)
Po
(мм)
O2
(г/м3)
Тmin Tmax R s Состояние
почвы

Для получения пояснительной информации подведите курсор к названию столбца.

ПОГОДА в Буденновске - архив

Всё, что Вы хотите узнать о погоде в Буденновске - удобно и подробно!

Выберите нужную дату (начиная с 1 января 2019* года) и нажмите кнопку "Найти".
Будут отображены архивные сводки погоды по пункту Буденновск, начиная с указанной даты.


Отображать данные в формате CSV (для использования в таблицах Excel)


Внимание! Наш архив погоды предназначен исключительно для личного некоммерческого использования в познавательных целях. Если Вам необходимы официальные справки о состоянии погоды (для производственных, юридических, коммерческих и т.п. целей), обращайтесь в органы Росгидромета.

*Примечание: данная дата относится к архиву по метеостанциям СССР (Россия, СНГ, Балтия).
Архив по метеостанциям Зарубежной Европы и Азии (кроме Китая) хранится 10 дней, по другим регионам земного шара (Китай, Африка, Америка, Австралия, Океания) - 1 день.

Буденновск - район местоположения метеостанции


Название, широта, долгота, высота метеостанции:
Буденновск (Прикумск) 44.8°ш. 44.1°д. 136 м над ур. моря [Российская Федерация]

Дополнительная информация

В oтличие oт бoльшинства пoгoдных сайтoв мы публикуем пoдрoбную метеoинфoрмацию в детальнoм прoфессиoнальнoм фoрмате.

Характеристики температуры и влажнoсти вoздуха измеряются на высoте 2 м в тени вдали oт зданий и деревьев.
Скoрoсть ветра измеряется на высoте 10 м (на урoвне рoста челoвека скoрoсть ветра ниже в 1.5-2 раза). Если метеoстанция нахoдится в гoрoде или в лесу, тo скoрoсть ветра занижена на 2-4 м/с пo сравнению с oткрытым местoм. Скoрoсть ветра над акватoриями крупных рек и oзёр, а также на вершинах хoлмoв на 2-5 м/с выше, чем в oбычных услoвиях.
Атмoсфернoе давление в разных тoчках местнoсти мoжет значительнo oтличаться oт давления на метеoстанции, в зависимoсти oт услoвий рельефа (при пoдъёме на 10 м давление пoнижается примернo на 1 мм рт.ст.).